Date,TemperatureHighF,TemperatureAvgF,TemperatureLowF,DewpointHighF,DewpointAvgF,DewpointLowF,HumidityHigh,HumidityAvg,HumidityLow,PressureMaxIn,PressureMinIn,WindSpeedMaxMPH,WindSpeedAvgMPH,GustSpeedMaxMPH,PrecipitationSumIn
2013-1-1,43.0,38.2,29.6,31.0,29.5,25.0,86,71,63,30.09,29.98,4,0,7,0.00
2013-1-2,36.5,31.2,25.0,29.0,20.5,16.0,76,65,51,30.32,30.08,10,1,12,0.00
2013-1-3,36.6,27.4,19.5,21.0,19.0,16.0,90,72,49,30.34,30.23,1,0,6,0.00
2013-1-4,40.7,34.8,26.0,24.0,22.5,21.0,80,62,50,30.28,30.18,7,1,14,0.00
2013-1-5,41.3,35.4,29.7,29.0,23.9,22.0,76,64,53,30.45,30.22,9,1,12,0.00
2013-1-6,48.9,40.6,28.0,34.0,30.5,27.0,95,69,51,30.27,30.10,4,0,8,0.00
2013-1-7,43.1,37.8,25.0,31.0,27.4,22.0,88,67,55,30.50,30.22,5,1,11,0.00
2013-1-8,51.0,34.1,23.2,35.0,27.6,21.0,95,79,50,30.50,30.43,3,0,6,0.00
2013-1-9,49.7,38.0,27.0,41.0,33.8,25.0,94,85,59,30.46,30.31,2,0,7,0.02
2013-1-10,50.4,43.8,35.1,33.0,30.5,28.0,79,60,45,30.67,30.45,3,0,8,0.00
2013-1-11,44.9,39.9,32.9,42.0,35.9,30.0,97,85,69,30.57,30.17,4,0,6,0.10
2013-1-12,57.2,46.4,41.2,50.0,44.2,40.0,98,92,77,30.24,30.16,1,0,3,0.00
2013-1-13,52.2,47.8,42.4,52.0,47.3,41.0,99,98,96,30.20,30.04,4,0,5,0.02
2013-1-14,57.2,51.3,39.3,57.0,46.9,37.0,99,86,66,30.38,30.01,4,0,9,0.20
2013-1-15,39.6,38.2,34.4,38.0,36.8,33.0,96,94,92,30.41,30.23,2,0,4,0.57
2013-1-16,39.5,36.6,33.7,39.0,35.9,33.0,97,97,96,30.24,29.92,4,0,8,0.01
2013-1-17,42.9,39.9,36.7,39.0,33.2,28.0,97,78,60,30.20,30.04,4,0,9,0.00
2013-1-18,37.0,31.6,25.2,31.0,19.4,10.0,80,62,40,30.56,30.12,6,1,13,0.00
2013-1-19,52.5,39.9,29.7,32.0,27.7,22.0,80,63,43,30.49,30.03,6,1,7,0.00
2013-1-20,55.3,43.7,31.7,34.0,24.1,13.0,71,49,25,30.16,29.89,12,1,19,0.00
2013-1-21,41.3,32.6,27.8,26.0,19.5,12.0,67,59,47,30.17,29.88,10,1,14,0.00
2013-1-22,27.7,19.1,14.8,14.0,0.3,-5.0,57,44,34,30.38,30.02,7,2,16,0.00
2013-1-23,24.3,17.8,8.4,8.0,2.5,1.0,84,53,37,30.44,30.23,4,0,13,0.00
2013-1-24,24.6,19.2,12.6,15.0,9.3,3.0,88,68,41,30.60,30.19,7,1,14,0.00
2013-1-25,23.0,18.7,14.2,18.0,9.6,3.0,88,69,48,30.60,30.16,4,0,7,0.00
2013-1-26,32.0,25.5,20.0,22.0,19.8,17.0,89,80,63,30.51,30.17,4,0,9,0.00
2013-1-27,35.3,27.4,18.4,22.0,19.4,16.0,93,73,54,30.68,30.52,3,0,7,0.00
2013-1-28,40.9,34.3,27.4,40.0,31.9,23.0,98,91,74,30.58,30.14,3,0,6,0.26
2013-1-29,65.9,48.6,33.5,55.0,44.9,33.0,99,88,66,30.21,30.05,4,0,6,0.01
2013-1-30,69.2,58.9,50.8,62.0,56.3,49.0,98,91,79,30.04,29.28,8,1,12,2.16
2013-1-31,57.9,40.7,26.5,57.0,28.1,14.0,98,62,41,29.97,29.20,12,2,25,0.46
2013-2-1,29.6,24.6,18.2,25.0,12.2,5.0,91,61,43,30.47,29.89,11,2,23,0.00
2013-2-2,28.2,22.3,13.4,26.0,14.6,6.0,92,73,51,30.48,30.11,5,0,7,0.00
2013-2-3,33.1,28.8,22.2,29.0,25.4,20.0,95,87,72,30.11,29.91,6,0,13,0.02
2013-2-4,35.6,29.3,23.2,24.0,17.3,13.0,73,61,50,30.19,29.98,6,1,12,0.00
2013-2-5,39.2,33.7,29.0,30.0,26.6,23.0,84,75,69,30.02,29.93,3,0,3,0.00
2013-2-6,42.0,35.6,27.8,31.0,27.2,21.0,90,72,56,30.42,30.02,9,1,16,0.00
2013-2-7,37.4,31.7,23.5,30.0,24.6,20.0,88,76,64,30.52,30.29,5,1,7,0.00
2013-2-8,39.6,35.9,33.3,37.0,32.0,24.0,95,86,68,30.29,29.83,9,1,19,0.19
2013-2-9,38.4,31.3,24.4,24.0,18.6,15.0,74,61,43,30.47,29.99,11,2,21,0.00
2013-2-10,42.9,31.5,17.7,24.0,18.1,15.0,91,61,34,30.56,30.32,6,1,9,0.00
2013-2-11,52.2,43.8,34.6,50.0,41.1,25.0,97,91,58,30.32,29.77,3,0,8,0.26
2013-2-12,54.2,46.1,35.7,35.0,29.8,28.0,78,54,38,30.06,29.88,8,1,15,0.00
2013-2-13,46.1,35.6,28.1,35.0,29.9,25.0,96,81,60,30.03,29.73,4,0,5,0.16
2013-2-14,47.9,36.4,29.3,33.0,30.3,27.0,96,80,52,30.09,29.84,2,0,9,0.17
2013-2-15,57.6,40.4,29.2,38.0,32.6,28.0,96,77,41,30.11,29.96,6,0,13,0.16
2013-2-16,37.0,34.0,30.5,33.0,29.1,18.0,97,83,59,30.08,29.91,7,1,10,0.03
2013-2-17,30.2,26.7,23.1,19.0,13.0,8.0,68,57,42,30.28,29.91,10,2,20,0.00
2013-2-18,41.8,29.0,19.3,18.0,11.1,7.0,63,48,32,30.46,30.24,5,1,10,0.00
2013-2-19,44.3,38.6,32.0,41.0,30.7,18.0,95,75,54,30.24,29.79,4,1,11,0.14
2013-2-20,36.7,30.6,24.5,23.0,15.7,10.0,59,54,48,30.24,29.91,9,3,16,0.00
2013-2-21,37.3,28.8,23.3,18.0,15.2,11.0,64,57,45,30.41,30.20,8,2,14,0.00
2013-2-22,33.1,30.5,28.3,30.0,23.7,18.0,92,76,62,30.47,30.30,5,1,7,0.00
2013-2-23,46.8,38.1,31.4,45.0,37.0,29.0,97,96,92,30.30,29.89,2,0,4,0.02
2013-2-24,48.5,40.2,31.1,40.0,31.6,21.0,98,74,47,30.18,29.87,9,2,19,0.01
2013-2-25,48.5,34.5,24.2,28.0,23.7,20.0,86,66,44,30.30,30.18,3,0,7,0.00
2013-2-26,42.4,35.5,26.7,42.0,32.7,23.0,97,89,74,30.31,29.70,6,1,16,0.57
2013-2-27,54.6,45.5,38.8,42.0,38.4,34.0,97,78,52,29.76,29.60,5,1,11,0.05
2013-2-28,44.9,41.5,38.0,38.0,31.4,27.0,90,68,50,29.79,29.70,10,1,16,0.01
2013-3-1,42.4,39.4,33.6,32.0,29.5,24.0,76,68,56,29.95,29.78,6,2,12,0.00
2013-3-2,35.9,32.5,29.6,25.0,23.2,20.0,77,69,55,29.96,29.89,10,1,13,0.00
2013-3-3,38.7,32.5,28.7,23.0,21.2,19.0,76,64,50,29.99,29.87,8,2,16,0.00
2013-3-4,42.1,33.3,27.1,21.0,18.5,16.0,65,55,42,30.11,29.99,14,2,19,0.00
2013-3-5,50.4,38.4,27.9,30.0,21.1,16.0,73,52,27,30.15,29.90,6,1,8,0.00
2013-3-6,38.4,35.2,33.0,35.0,33.1,30.0,96,92,72,30.07,29.70,12,2,14,0.68
2013-3-7,48.0,40.5,35.7,32.0,29.5,27.0,81,66,48,30.22,30.07,8,2,18,0.15
2013-3-8,48.1,40.8,34.8,30.0,28.3,24.0,79,62,49,30.34,30.20,13,2,18,0.00
2013-3-9,62.6,43.6,30.5,29.0,25.8,23.0,76,53,25,30.42,30.31,4,1,6,0.00
2013-3-10,63.0,45.7,28.2,31.0,25.5,17.0,86,51,21,30.40,30.27,5,1,9,0.00
2013-3-11,59.2,50.1,41.0,50.0,44.1,31.0,93,80,58,30.31,30.02,5,1,9,0.00
2013-3-12,57.3,52.3,41.3,55.0,45.6,31.0,96,79,59,30.02,29.77,10,2,18,0.91
2013-3-13,49.6,39.6,28.8,32.0,26.7,20.0,91,62,34,30.12,29.96,9,1,15,0.00
2013-3-14,43.6,36.3,31.1,21.0,17.9,16.0,64,48,33,30.19,30.09,9,3,20,0.00
2013-3-15,55.6,42.5,26.0,35.0,25.5,20.0,83,53,34,30.16,29.84,4,1,9,0.00
2013-3-16,55.0,45.3,38.0,39.0,35.6,33.0,85,70,54,30.00,29.71,6,1,8,0.00
2013-3-17,39.7,37.4,34.0,33.0,29.2,24.0,91,73,57,30.34,29.98,7,1,11,0.00
2013-3-18,36.8,35.3,32.1,35.0,29.1,22.0,96,79,59,30.39,29.96,4,1,9,0.44
2013-3-19,57.1,43.4,35.3,40.0,29.5,11.0,97,67,21,29.97,29.78,12,1,18,0.00
2013-3-20,50.3,41.9,33.8,25.0,17.8,15.0,61,39,25,30.05,29.83,5,1,14,0.00
2013-3-21,37.6,32.2,26.7,29.0,17.1,9.0,88,55,38,29.97,29.83,7,1,17,0.00
2013-3-22,45.9,34.1,26.0,21.0,18.1,12.0,72,53,37,30.07,29.95,6,1,14,0.00
2013-3-23,52.2,37.2,23.8,26.0,22.9,20.0,87,59,35,30.10,29.99,7,1,9,0.00
2013-3-24,42.7,35.9,27.3,32.0,25.1,22.0,90,67,47,30.07,29.73,3,0,6,0.00
2013-3-25,38.1,34.7,32.6,36.0,32.9,31.0,96,93,89,29.76,29.59,4,0,6,0.92
2013-3-26,50.8,40.4,31.5,35.0,31.2,27.0,97,72,42,30.05,29.77,5,1,11,0.22
2013-3-27,47.9,41.9,36.4,33.0,29.2,25.0,74,62,42,30.18,30.05,9,2,18,0.00
2013-3-28,47.7,41.9,34.6,33.0,30.1,27.0,79,64,46,30.29,30.15,10,2,17,0.00
2013-3-29,55.0,45.6,36.6,34.0,29.6,26.0,73,55,38,30.32,30.20,8,1,10,0.00
2013-3-30,59.6,45.0,29.9,34.0,28.3,23.0,88,57,25,30.29,30.18,4,0,9,0.00
2013-3-31,51.5,45.2,36.4,49.0,39.4,28.0,96,80,67,30.19,29.81,3,0,5,0.06
2013-4-1,62.7,46.2,34.6,49.0,35.6,21.0,98,70,44,30.05,29.80,8,1,19,0.00
2013-4-2,47.4,35.9,26.1,24.0,19.0,14.0,84,54,27,30.25,30.06,6,1,12,0.00
2013-4-3,49.4,36.2,24.3,22.0,18.3,13.0,82,52,25,30.46,30.25,10,1,15,0.00
2013-4-4,48.5,35.7,20.9,35.0,20.2,16.0,87,57,28,30.49,30.17,5,1,7,0.03
2013-4-5,64.6,49.0,37.0,38.0,31.3,23.0,95,58,27,30.16,29.87,7,1,13,0.13
2013-4-6,57.0,46.0,34.8,26.0,22.5,18.0,60,41,26,30.39,30.11,5,1,9,0.00
2013-4-7,69.1,55.1,38.6,43.0,37.5,29.0,78,54,36,30.34,30.03,9,2,10,0.00
2013-4-8,78.9,64.8,47.0,52.0,47.2,42.0,83,56,33,30.13,29.99,4,1,9,0.00
2013-4-9,85.6,72.2,54.4,59.0,54.2,49.0,85,55,37,30.12,29.95,6,1,11,0.00
2013-4-10,91.1,75.5,56.6,61.0,56.2,51.0,83,53,34,30.01,29.80,5,1,11,0.00
2013-4-11,84.8,69.3,55.3,63.0,58.2,53.0,92,70,44,29.93,29.77,5,1,9,0.00
2013-4-12,73.6,56.8,51.0,65.0,54.8,50.0,98,93,75,29.86,29.63,6,1,8,0.47
2013-4-13,68.6,55.0,40.7,50.0,42.2,37.0,94,65,39,30.01,29.83,4,1,10,0.00
2013-4-14,65.6,53.8,39.7,42.0,38.5,36.0,89,60,35,30.20,30.01,6,1,11,0.00
2013-4-15,63.2,57.0,52.8,52.0,48.6,42.0,89,74,63,30.35,30.19,5,1,9,0.01
2013-4-16,74.2,62.6,53.7,60.0,55.0,48.0,87,77,61,30.37,30.16,9,1,12,0.00
2013-4-17,73.5,65.7,56.8,63.0,59.1,56.0,97,80,65,30.28,30.17,6,0,8,0.01
2013-4-18,77.0,63.9,57.0,66.0,58.8,54.0,97,84,61,30.27,30.05,7,2,13,0.23
2013-4-19,76.3,65.9,50.9,67.0,61.0,48.0,95,85,69,30.05,29.64,7,2,11,1.02
2013-4-20,59.8,51.3,44.3,48.0,33.1,28.0,92,52,32,30.40,29.84,8,2,15,0.01
2013-4-21,55.1,45.3,36.3,32.0,26.5,22.0,74,49,33,30.66,30.40,5,1,10,0.00
2013-4-22,57.8,45.8,32.6,41.0,35.7,31.0,93,70,48,30.65,30.48,4,1,10,0.00
2013-4-23,62.2,49.9,43.2,46.0,41.2,36.0,89,73,54,30.48,30.19,3,0,7,0.00
2013-4-24,77.0,59.6,40.8,59.0,50.6,39.0,97,75,48,30.19,29.83,8,1,14,0.00
2013-4-25,64.7,52.7,42.9,48.0,35.1,30.0,71,53,28,30.38,30.05,8,2,16,0.00
2013-4-26,65.8,51.8,38.0,40.0,36.0,31.0,91,59,29,30.52,30.37,4,0,7,0.00
2013-4-27,71.0,54.7,37.2,45.0,39.3,35.0,91,60,34,30.49,30.34,6,1,7,0.00
2013-4-28,65.8,54.2,40.9,52.0,43.5,39.0,93,70,41,30.35,30.20,4,0,8,0.01
2013-4-29,58.6,55.2,51.5,58.0,53.2,45.0,97,93,66,30.22,30.11,4,1,9,0.11
2013-4-30,60.8,56.2,50.2,57.0,54.8,49.0,98,94,87,30.35,30.16,3,0,7,0.03
2013-5-1,71.1,57.1,43.3,49.0,43.3,39.0,96,65,36,30.48,30.35,5,0,6,0.00
2013-5-2,70.4,54.4,39.9,50.0,45.7,39.0,97,75,43,30.51,30.38,5,0,8,0.00
2013-5-3,68.3,54.2,42.8,49.0,44.4,40.0,97,72,46,30.45,30.36,4,1,9,0.00
2013-5-4,68.2,55.2,42.1,49.0,44.2,40.0,92,69,45,30.40,30.23,6,1,9,0.00
2013-5-5,63.8,51.4,41.8,46.0,42.8,40.0,93,74,51,30.31,30.21,6,1,8,0.00
2013-5-6,61.7,54.2,43.2,58.0,51.0,42.0,96,89,83,30.25,30.12,5,1,7,0.06
2013-5-7,62.2,59.4,57.4,61.0,58.7,57.0,98,97,96,30.14,30.00,4,1,8,1.16
2013-5-8,71.6,60.7,55.4,60.0,57.1,54.0,98,89,54,30.06,29.97,4,0,12,0.23
2013-5-9,74.3,62.1,53.3,61.0,56.8,53.0,98,84,59,30.05,29.98,2,0,7,0.00
2013-5-10,83.2,67.8,50.8,63.0,58.5,50.0,99,76,46,30.07,29.90,5,1,10,0.70
2013-5-11,79.0,66.0,61.7,68.0,63.7,61.0,98,92,63,29.95,29.75,2,0,12,0.70
2013-5-12,63.6,56.9,43.0,61.0,41.9,30.0,97,61,31,30.09,29.80,10,2,15,0.01
2013-5-13,58.1,47.8,37.1,40.0,31.8,25.0,94,59,29,30.23,30.09,7,1,14,0.00
2013-5-14,64.6,49.3,31.8,43.0,34.8,30.0,95,62,34,30.28,30.12,7,1,10,0.00
2013-5-15,83.3,65.8,53.5,66.0,54.8,43.0,82,68,53,30.12,29.73,6,1,9,0.00
2013-5-16,79.8,71.7,62.4,65.0,60.8,57.0,89,70,55,29.97,29.79,9,1,10,0.00
2013-5-17,84.4,70.6,54.7,60.0,53.7,45.0,97,59,34,30.18,29.97,4,0,6,0.00
2013-5-18,66.6,62.4,58.7,57.0,56.2,53.0,94,81,63,30.28,30.19,4,1,7,0.00
2013-5-19,73.8,64.5,58.6,67.0,62.3,57.0,98,93,79,30.26,30.14,3,0,4,0.01
2013-5-20,81.0,70.9,64.5,72.0,66.8,64.0,97,87,69,30.17,30.02,4,0,5,0.00
2013-5-21,85.1,73.5,64.5,74.0,68.8,64.0,98,86,65,30.04,29.92,7,1,10,0.00
2013-5-22,88.2,75.8,66.6,75.0,69.8,65.0,98,83,59,29.97,29.86,5,1,8,0.24
2013-5-23,80.7,70.4,64.0,70.0,66.5,63.0,98,88,68,29.93,29.78,6,1,11,0.37
2013-5-24,64.3,55.9,47.6,64.0,48.7,33.0,98,78,56,30.21,29.78,8,2,18,0.04
2013-5-25,64.6,53.7,43.1,41.0,37.2,34.0,75,56,37,30.25,30.15,9,2,15,0.00
2013-5-26,72.1,58.5,48.3,44.0,39.3,37.0,79,51,28,30.28,30.19,6,1,13,0.00
2013-5-27,70.9,58.9,42.7,52.0,45.7,40.0,91,65,37,30.35,30.24,2,0,5,0.00
2013-5-28,79.8,65.9,55.8,69.0,60.5,52.0,96,83,64,30.27,30.12,3,0,7,0.12
2013-5-29,90.0,75.6,62.0,71.0,66.3,62.0,99,76,49,30.17,30.11,3,0,6,0.00
2013-5-30,91.4,78.3,64.3,72.0,67.5,63.0,96,72,46,30.22,30.14,4,0,8,0.00
2013-5-31,91.2,77.6,62.1,70.0,66.1,61.0,98,71,46,30.19,30.06,4,1,8,0.00
2013-6-1,90.0,79.1,65.0,73.0,67.9,63.0,94,70,52,30.08,29.95,5,0,8,0.00
2013-6-2,84.5,75.8,68.0,74.0,68.4,64.0,97,78,66,29.95,29.88,4,1,16,1.35
2013-6-3,81.2,72.0,65.6,71.0,66.4,58.0,98,84,60,29.99,29.86,4,0,8,0.19
2013-6-4,76.8,65.4,53.4,57.0,51.0,45.0,88,62,39,30.18,29.99,4,1,7,0.00
2013-6-5,78.3,66.0,50.8,60.0,55.5,50.0,96,71,51,30.25,30.10,6,1,9,0.00
2013-6-6,71.3,65.6,59.1,64.0,60.0,54.0,97,82,70,30.13,29.91,6,1,8,0.66
2013-6-7,70.2,67.5,64.3,70.0,66.8,64.0,98,97,95,29.91,29.64,3,0,8,1.32
2013-6-8,79.8,69.6,63.7,65.0,63.0,61.0,96,81,57,30.13,29.75,6,0,8,0.01
2013-6-9,80.2,71.2,60.5,71.0,64.3,59.0,96,80,63,30.24,30.14,4,0,7,0.00
2013-6-10,78.8,71.2,67.6,76.0,69.8,66.0,98,95,84,30.15,29.83,5,0,9,2.39
2013-6-11,82.0,73.1,65.0,69.0,66.7,64.0,99,82,60,29.89,29.82,7,1,13,0.01
2013-6-12,88.4,76.7,63.3,73.0,68.0,62.0,97,76,55,29.91,29.82,4,0,10,0.00
2013-6-13,87.4,73.1,67.1,73.0,67.9,58.0,96,84,57,29.84,29.50,7,1,13,1.54
2013-6-14,78.9,67.9,59.4,59.0,56.5,52.0,90,69,43,30.02,29.64,9,1,13,0.01
2013-6-15,82.6,70.5,57.6,63.0,58.6,55.0,94,68,40,30.13,30.02,8,1,9,0.00
2013-6-16,84.1,72.4,60.5,69.0,63.8,57.0,90,75,57,30.08,29.93,5,0,8,0.00
2013-6-17,88.8,77.1,65.6,72.0,67.8,63.0,92,74,53,30.00,29.91,2,0,6,0.00
2013-6-18,75.4,70.6,64.9,72.0,68.3,64.0,97,92,83,29.96,29.83,3,0,6,0.08
2013-6-19,77.0,68.1,60.7,65.0,62.7,59.0,97,84,60,30.21,29.93,5,0,5,0.00
2013-6-20,79.6,69.1,57.2,67.0,61.5,56.0,98,78,58,30.32,30.21,6,1,8,0.00
2013-6-21,83.5,69.0,54.8,64.0,56.0,48.0,96,67,38,30.36,30.27,5,1,6,0.00
2013-6-22,88.1,73.5,58.2,71.0,64.6,57.0,98,76,52,30.31,30.18,4,1,8,0.00
2013-6-23,85.7,74.1,64.8,74.0,69.3,63.0,97,86,67,30.24,30.11,3,0,4,0.32
2013-6-24,93.1,76.1,67.7,76.0,70.4,67.0,99,84,47,30.17,30.07,4,0,15,0.12
2013-6-25,93.1,79.1,65.9,76.0,70.6,64.0,99,77,54,30.08,29.93,6,0,11,0.16
2013-6-26,90.6,75.9,65.8,77.0,70.5,65.0,98,85,62,29.96,29.85,2,0,6,0.11
2013-6-27,83.1,74.8,66.7,76.0,71.3,66.0,99,89,76,29.88,29.65,9,1,9,0.12
2013-6-28,88.2,75.8,68.2,74.0,70.6,65.0,99,85,61,29.68,29.52,5,1,7,0.01
2013-6-29,88.0,76.2,63.7,70.0,65.9,63.0,98,73,45,29.73,29.57,4,0,7,0.00
2013-6-30,86.3,76.2,67.6,76.0,72.0,66.0,97,87,68,29.89,29.74,6,1,8,0.14
2013-7-1,82.9,75.6,69.9,75.0,72.2,69.0,98,89,73,30.02,29.89,6,1,8,0.06
2013-7-2,83.2,76.0,73.0,75.0,72.9,72.0,96,90,75,30.22,30.02,6,1,7,0.07
2013-7-3,86.5,75.7,71.3,78.0,73.4,70.0,99,93,73,30.28,30.21,4,0,8,0.51
2013-7-4,88.5,79.6,72.6,77.0,73.6,72.0,98,83,64,30.30,30.20,6,1,9,0.00
2013-7-5,90.2,81.2,72.3,76.0,73.4,71.0,95,78,58,30.27,30.16,4,1,7,0.00
2013-7-6,92.7,81.2,71.2,77.0,73.2,70.0,98,78,56,30.23,30.10,3,0,6,0.00
2013-7-7,91.3,78.6,69.4,78.0,72.2,69.0,97,82,61,30.15,30.03,4,0,14,0.90
2013-7-8,86.5,75.7,68.6,73.0,70.1,68.0,99,84,57,30.15,30.08,4,0,8,0.04
2013-7-9,84.3,76.3,69.1,75.0,72.3,68.0,98,87,70,30.15,30.04,2,0,5,0.00
2013-7-10,88.6,78.6,73.5,77.0,74.1,71.0,97,87,66,30.06,29.90,5,0,8,0.00
2013-7-11,85.3,76.6,71.9,74.0,71.6,70.0,98,85,63,29.96,29.89,3,0,5,0.11
2013-7-12,75.2,69.8,66.3,72.0,67.9,65.0,96,93,81,30.07,29.94,5,0,8,0.71
2013-7-13,85.5,76.0,68.9,75.0,71.3,68.0,98,86,69,30.32,30.07,4,0,6,0.03
2013-7-14,91.6,80.6,72.4,77.0,73.8,71.0,97,81,56,30.38,30.30,3,0,6,0.00
2013-7-15,94.7,80.9,69.5,77.0,73.4,69.0,99,80,52,30.35,30.23,4,0,6,0.00
2013-7-16,94.2,83.3,74.3,77.0,73.2,70.0,95,74,46,30.28,30.21,4,0,7,0.00
2013-7-17,96.8,83.4,72.5,76.0,73.2,69.0,95,74,45,30.26,30.13,3,0,5,0.00
2013-7-18,98.2,84.3,73.2,81.0,76.6,72.0,97,79,52,30.16,30.04,2,0,4,0.00
2013-7-19,97.8,83.2,74.4,81.0,77.0,73.0,98,83,55,30.05,29.91,3,0,6,0.15
2013-7-20,93.3,80.3,72.0,78.0,73.8,69.0,97,82,58,29.94,29.83,14,0,15,0.03
2013-7-21,91.9,78.8,69.5,76.0,72.5,68.0,96,82,55,29.98,29.91,2,0,5,0.01
2013-7-22,89.5,78.4,71.1,76.0,73.3,70.0,98,85,63,29.97,29.80,4,0,9,0.34
2013-7-23,85.8,77.0,70.6,75.0,71.2,69.0,98,83,60,29.81,29.69,7,1,10,0.12
2013-7-24,77.4,73.5,68.3,70.0,62.7,58.0,94,70,53,29.96,29.72,1,0,3,0.00
2013-7-25,74.8,72.9,71.3,61.0,58.8,57.0,65,62,56,30.08,29.96,0,0,0,0.00
2013-7-26,73.3,72.3,71.2,62.0,59.4,57.0,68,64,58,30.14,30.07,0,0,0,0.00
2013-7-27,74.5,72.0,70.1,66.0,60.2,56.0,78,67,61,30.10,29.97,0,0,0,0.00
2013-7-28,71.9,71.0,70.1,64.0,59.5,56.0,76,67,62,30.05,29.94,0,0,0,0.00
2013-7-29,74.6,71.8,69.3,63.0,61.0,57.0,73,69,64,30.21,30.04,0,0,0,0.00
2013-7-30,75.1,72.8,70.9,65.0,61.9,60.0,71,69,67,30.28,30.18,0,0,0,0.00
2013-7-31,78.1,74.3,70.9,67.0,63.2,56.0,72,68,59,30.20,30.06,0,0,0,0.00
2013-8-1,71.9,70.5,69.5,60.0,57.4,55.0,68,63,60,30.06,29.86,0,0,0,0.00
2013-8-2,72.4,71.8,71.1,63.0,59.9,57.0,73,66,61,30.02,29.91,0,0,0,0.00
2013-8-3,76.2,73.2,69.9,67.0,62.5,61.0,86,69,62,30.03,29.97,0,0,3,0.00
2013-8-4,77.2,74.2,70.1,61.0,59.3,55.0,66,60,48,30.07,29.95,0,0,0,0.00
2013-8-5,85.2,75.5,70.5,62.0,59.0,55.0,63,57,44,30.16,30.06,0,0,0,0.00
2013-8-6,79.4,75.9,73.8,64.0,62.1,60.0,68,63,58,30.12,30.06,0,0,0,0.00
2013-8-7,83.9,75.5,68.6,66.0,61.2,54.0,68,62,52,30.12,30.03,0,0,0,0.00
2013-8-8,76.6,72.1,69.2,60.0,57.7,55.0,66,61,54,30.09,30.02,0,0,0,0.00
2013-8-9,76.9,73.4,70.5,61.0,58.9,55.0,68,61,54,30.02,29.90,0,0,0,0.00
2013-8-10,77.1,74.1,71.7,61.0,58.7,55.0,66,59,52,30.13,30.00,0,0,0,0.00
2013-8-11,76.7,73.5,69.2,61.0,58.1,54.0,65,59,52,30.16,30.05,0,0,0,0.00
2013-8-12,74.8,71.8,69.6,58.0,56.5,53.0,65,59,54,30.09,29.96,0,0,0,0.00
2013-8-13,75.5,72.4,70.4,59.0,57.2,55.0,63,59,53,29.96,29.79,0,0,0,0.00
2013-8-14,79.7,73.8,70.3,59.0,56.3,53.0,62,55,43,30.15,29.87,0,0,0,0.00
2013-8-15,85.9,73.6,69.4,60.0,56.2,53.0,60,55,36,30.24,30.14,0,0,0,0.00
2013-8-16,82.1,72.2,65.9,61.0,56.9,53.0,69,59,47,30.25,30.19,0,0,0,0.00
2013-8-17,83.8,73.7,67.3,63.0,59.0,55.0,68,61,50,30.32,30.26,0,0,0,0.00
2013-8-18,78.8,73.9,62.5,63.0,61.4,60.0,95,66,57,30.29,30.21,1,0,2,0.01
2013-8-19,76.8,67.4,58.9,69.0,63.8,58.0,98,88,74,30.22,30.11,3,0,4,0.00
2013-8-20,88.0,73.9,60.4,72.0,66.6,60.0,99,80,51,30.21,30.14,3,0,7,0.00
2013-8-21,88.6,76.5,65.3,75.0,70.6,64.0,98,83,59,30.24,30.11,4,0,6,0.00
2013-8-22,86.5,77.3,68.4,71.0,69.9,68.0,97,79,60,30.12,29.97,6,0,9,0.00
2013-8-23,74.4,69.2,58.8,70.0,65.7,58.0,97,88,78,30.16,29.98,4,0,5,0.06
2013-8-24,83.7,69.2,58.2,65.0,59.9,56.0,98,75,40,30.39,30.17,6,0,8,0.01
2013-8-25,83.9,68.1,55.4,66.0,59.1,55.0,98,76,45,30.47,30.31,3,0,7,0.00
2013-8-26,88.0,71.9,57.1,66.0,62.0,56.0,97,74,47,30.34,30.05,5,0,7,0.00
2013-8-27,90.6,78.0,69.0,73.0,69.9,65.0,92,77,55,30.05,29.91,6,1,9,0.00
2013-8-28,79.1,73.8,69.9,73.0,71.2,69.0,97,91,78,29.96,29.86,3,0,4,0.32
2013-8-29,86.5,74.9,68.9,72.0,70.2,68.0,98,87,60,30.07,29.88,7,1,8,0.00
2013-8-30,88.0,76.7,68.4,73.0,70.1,67.0,97,82,56,30.09,29.92,4,0,7,0.00
2013-8-31,90.2,78.6,68.2,75.0,71.7,67.0,96,80,57,29.94,29.82,7,1,8,0.00
2013-9-1,95.1,78.7,66.3,76.0,71.5,66.0,98,80,47,29.88,29.79,5,0,5,0.00
2013-9-2,91.6,78.8,68.6,74.0,71.2,67.0,96,79,54,29.84,29.75,6,0,10,0.00
2013-9-3,85.1,75.2,65.5,72.0,63.9,57.0,96,70,43,30.00,29.76,6,1,15,0.00
2013-9-4,84.5,68.2,55.9,60.0,55.8,51.0,93,68,33,30.13,30.00,4,0,6,0.00
2013-9-5,83.6,68.7,55.4,64.0,57.8,49.0,99,71,44,30.18,30.06,5,1,13,0.00
2013-9-6,78.8,62.9,53.2,54.0,50.1,47.0,91,66,37,30.31,30.18,4,0,7,0.00
2013-9-7,82.7,64.8,49.2,64.0,56.7,48.0,97,78,48,30.20,29.99,4,0,8,0.00
2013-9-8,86.5,72.5,61.5,69.0,64.6,58.0,97,78,54,30.10,29.92,4,1,8,0.00
2013-9-9,79.7,68.7,57.9,68.0,58.6,50.0,87,71,58,30.25,30.11,3,1,6,0.00
2013-9-10,93.1,79.6,71.3,76.0,72.0,68.0,93,79,52,30.22,30.12,4,1,6,0.00
2013-9-11,94.4,81.2,70.2,77.0,73.1,69.0,98,78,50,30.18,30.04,4,0,7,0.00
2013-9-12,89.3,74.7,68.0,75.0,70.5,67.0,98,87,63,30.04,29.78,4,0,10,0.96
2013-9-13,77.3,68.1,58.7,68.0,58.8,51.0,98,75,42,29.99,29.74,10,1,12,0.01
2013-9-14,62.4,55.0,49.9,51.0,47.3,46.0,87,76,58,30.13,29.99,7,1,9,0.00